Regional Weather Roundup
Issued by NWS

Home | Current Version | Previous Version | Text Only | Print | Product List | Glossary On
Versions: 1 2 3 4 5 6 7 8 9 10 11 12 13 14 15 16 17 18 19 20 21 22 23 24 25 26 27 28 29 30 31 32 33 34 35 36 37 38 39 40 41 42 43 44 45 46 47 48 49 50
000
ASUS42 KTBW 181617
RWRFL
FLORIDA REGIONAL WEATHER ROUNDUP
NATIONAL WEATHER SERVICE TAMPA BAY RUSKIN FL
1200 PM EDT SAT APR 18 2015

NOTE: "FAIR" INDICATES FEW OR NO CLOUDS BELOW 12,000 FEET WITH NO
SIGNIFICANT WEATHER AND/OR OBSTRUCTIONS TO VISIBILITY.


FLZ001>010-012>015-112-114-115-181700-
PANHANDLE FLORIDA

CITY           SKY/WX    TMP DP  RH WIND       PRES   REMARKS
PENSACOLA      CLOUDY    71  70  96 CALM      29.98S FOG
PENSACOLA NAS  CLOUDY    74  72  93 N3        29.97F
MILTON NAS     LGT RAIN  70  69  97 CALM      29.99
CRESTVIEW      LGT RAIN  71  69  93 CALM      30.00S
DUKE FIELD     CLOUDY    70  70 100 S2        29.98F
VALPARAISO     LGT RAIN  73  71  94 W1        29.98S
MARY ESTHER    PTSUNNY   75  66  73 SW6       29.97
TRI COUNTY     PTSUNNY   74  70  87 CALM      29.99F
PANAMA CITY    PTSUNNY   77  70  79 S3        29.98S
TYNDALL AFB    DRIZZLE   76  72  86 CALM      29.99S
APALACHICOLA   CLOUDY    81  74  79 SW9       29.99S

STATION/POSITION SKY/WX   TEMP    WIND        PRES    WAVE   SWELL
                          AIR SEA DIR/SP/G            HT/PER HT/PER
                          (F)     (DEG/KT/KT) (MB)    (FT/S) (FT/S)
30.1N   87.6W              73 73  200/  2/  2 1014.2S   2/ 5   2/ 5
29.2N   88.2W              72 75  110/  8/ 10 1015.3R   3/ 5   2/ 5
28.8N   86.0W              77 77  180/  4/  4 1015.5F   2/ 6   2/ 6
PANAMA CITY BEAC           74 74  270/  2/  3 1015.4R
CAPE SAN BLAS    NOT AVBL
TOWER C                    74     210/  7/  8 1015.5F
28.5N   84.5W              77 77  210/  6/  8 1016.3R   2/ 6   2/ 6

$$
FLZ011-016>038-118-127-128-134-139-239-181700-
NORTH FLORIDA

CITY           SKY/WX    TMP DP  RH WIND       PRES   REMARKS
MARIANNA       CLOUDY    75  72  90 SW7       29.98F
TALLAHASSEE    CLOUDY    80  70  71 W6        29.99S
PERRY          PTSUNNY   81  71  71 S13       30.00S
CROSS CITY       N/A    N/A N/A N/A MISG      30.00R
LAKE CITY      PTSUNNY   81  72  74 W9        30.00S
GAINESVILLE    PTSUNNY   82  70  66 W12       30.00R
MAYPORT NAS    PTSUNNY   78  71  79 E6        29.99S
JACKSONVILLE   PTSUNNY   79  70  74 W12       29.98S
JAX NAS        PTSUNNY   83  68  60 W9        29.99S
JAX CRAIG      PTSUNNY   82  68  62 W10       29.99R
JAX CECIL      PTSUNNY   82  70  65 W7        30.00R
FERNANDINA BEA PTSUNNY   82  73  74 E6        29.98S
ST AUGUSTINE   PTSUNNY   77  72  84 E8        30.00S

STATION/POSITION SKY/WX   TEMP    WIND        PRES    WAVE   SWELL
                          AIR SEA DIR/SP/G            HT/PER HT/PER
                          (F)     (DEG/KT/KT) (MB)    (FT/S) (FT/S)
SHELL POINT                78     250/  7/  9   N/A
KEATON BEACH               76     240/ 10/ 11 1016.2R
CEDAR KEY                  78     250/  7/ 10 1016.6R
FERNANDINA                 75 70  230/  4/  5 1014.8R
30.7N   81.3W                 71                N/A     2/10   2/11
MAYPORT                    71 69   70/  6/  7 1015.6R
31.4N   80.9W              68 68  130/  4/  4 1015.7F   2/ 9   2/ 9
ST AUGUSTINE               72 70   80/  4/  5 1016.4R

$$
FLZ040-043>046-052-053-057-058-063-144-181700-
INTERIOR CENTRAL FLORIDA

CITY           SKY/WX    TMP DP  RH WIND       PRES   REMARKS
OCALA          PTSUNNY   84  70  61 SW12      30.01S
THE VILLAGES     N/A     84  82  94 SW8       29.91S HX 101
LEESBURG       PTSUNNY   83  70  64 W7        30.01S
SANFORD        MOSUNNY   85  68  56 W10       29.99S
ORLANDO EXEC   SUNNY     84  69  60 W10       30.00S
ORLANDO INTL   MOSUNNY   84  71  65 W7        30.00S
WINTER HAVEN   MOSUNNY   86  69  56 W9        30.02R
LAKELAND       PTSUNNY   84  70  61 W9        30.02R
BARTOW         PTSUNNY   84  66  54 SW12      30.02R
OKEECHOBEE     MOSUNNY   84  72  65 SW12      30.01S

$$
FLZ041-047-054-059-064-141-147-181700-
EAST CENTRAL FLORIDA

CITY           SKY/WX    TMP DP  RH WIND       PRES   REMARKS
ORMOND BEACH   MOSUNNY   82  70  65 SW7       29.99R
DAYTONA BEACH  MOSUNNY   84  70  62 SW8       29.99S
DELAND           N/A    N/A N/A N/A SW9       30.00S
NEW SMYRNA BEA MOSUNNY   86  72  62 SW8       29.99S
JFK SPACE CTR  MOSUNNY   84  70  63 W8        29.98S
TITUSVILLE     MOSUNNY   82  73  74 W12       29.99F
CAPE CANAVERAL SUNNY     85  71  62 VRB7      29.98S
PATRICK AFB    SUNNY     86  71  60 W8        29.99S
MELBOURNE      MOSUNNY   85  71  63 W12       29.99S
VERO BEACH     MOSUNNY   87  68  52 S13       29.99S
FT PIERCE      MOSUNNY   88  71  57 SW10      29.99R

STATION/POSITION SKY/WX   TEMP    WIND        PRES    WAVE   SWELL
                          AIR SEA DIR/SP/G            HT/PER HT/PER
                          (F)     (DEG/KT/KT) (MB)    (FT/S) (FT/S)
28.5N   80.2W              77 79  250/  8/ 10 1015.7R
28.9N   78.5W              79 79  210/  8/ 10 1015.8R
TRIDENT PIER               82 79  300/  4/  7 1016.0R
28.4N   80.5W                 79                N/A     2/ 9
27.5N   80.2W                 78                N/A     3/11   2/11

$$
FLZ050-056-061-142-242-148-248-149-249-151-251-155-255-
160-260-181700-
WEST CENTRAL FLORIDA

CITY           SKY/WX    TMP DP  RH WIND       PRES   REMARKS
CRYSTAL RIVER  PTSUNNY   84  68  58 W10G17    30.02R
INVERNESS      PTSUNNY  N/A N/A N/A CALM      30.01S
BROOKSVILLE    MOSUNNY   83  71  67 W13       30.02R
CLEARWATER     MOSUNNY   85  72  65 SW13      30.02R
TAMPA INTL     PTSUNNY   84  73  69 S12       30.02R
TAMPA EXEC     PTSUNNY   86  72  62 SW8       30.02R
PLANT CITY     MOSUNNY   86  73  66 W7        30.04R
MACDILL AFB    MOSUNNY   85  77  76 SW13      30.02R HX  95
PETER O KNIGHT MOSUNNY   88  73  62 SW12      30.03R HX  96
ST PETERSBURG  MOSUNNY   82  71  69 SW12      30.00R
SARASOTA       SUNNY     84  72  67 SW13      30.01R
VENICE         FAIR      82  73  74 S13       30.03S

STATION/POSITION SKY/WX   TEMP    WIND        PRES    WAVE   SWELL
                          AIR SEA DIR/SP/G            HT/PER HT/PER
                          (F)     (DEG/KT/KT) (MB)    (FT/S) (FT/S)
CEDAR KEY                  78     250/  7/ 10 1016.6R
28.5N   84.5W              77 77  210/  6/  8 1016.3R   2/ 6   2/ 6
27.3N   84.2W                 78                N/A     2/ 4
CLEARWATER BEACH           78 81  200/ 12/ 13 1016.4R
MIDDLE TAMPA BAY           80     220/ 14/ 16 1016.0R
VENICE                     79 83  200/ 11/ 13 1016.2R

$$
FLZ066-069-070-075>078-162-262-165-265-181700-
SOUTHWEST FLORIDA AND KEYS

CITY           SKY/WX    TMP DP  RH WIND       PRES   REMARKS
PUNTA GORDA    MOSUNNY   86  72  62 W13       30.03R
FT MYERS       MOSUNNY   87  71  58 S10       30.00R
SOUTHWEST INTL MOSUNNY   85  71  63 W9        30.01R
NAPLES         MOSUNNY   86  71  60 SW14      30.01R
MARCO ISLAND   MOSUNNY   86  70  58 S9        30.02R
IMMOKALEE      SUNNY    N/A N/A N/A SW9       30.02R
MARATHON       SUNNY     86  74  67 SE9       30.01F
KEY WEST NAS   MOSUNNY   85  73  67 SE14      30.01S
KEY WEST INTL  MOSUNNY   84  74  71 SE10      30.01S

STATION/POSITION SKY/WX   TEMP    WIND        PRES    WAVE   SWELL
                          AIR SEA DIR/SP/G            HT/PER HT/PER
                          (F)     (DEG/KT/KT) (MB)    (FT/S) (FT/S)
VENICE                     79 83  200/ 11/ 13 1016.2R
NAPLES                     83 83  180/  2/  5 1015.9R
26.0N   85.6W              80 80  150/  6/  6 1016.0R   2/ 6   2/ 6
DRY TORTUGAS               79     150/ 12/ 12 1016.0R
NW FL BAY                  81     170/ 10/ 12 1016.7
SAND KEY                   79     150/ 10/ 11 1016.3S
SOMBRERO KEY               80     150/ 12/ 12 1017.0F
LONG KEY                   81 83  170/ 10/ 12 1017.0F
MOLASSES REEF              80 80  170/ 10/ 11 1016.5F

$$
FLZ067-068-071>074-168-172>174-181700-
SOUTHEAST FLORIDA

CITY           SKY/WX    TMP DP  RH WIND       PRES   REMARKS
W PALM BEACH   MOSUNNY   88  71  57 S12       30.00F
FT LAUDER-EXEC MOSUNNY   88  67  49 SW8       30.01S
FT LAUDERDALE  MOSUNNY   86  72  62 SE15      30.00S
POMPANO BEACH  MOSUNNY   86  32  14 S13       30.01S
PEMBROKE PINES MOSUNNY   89  65  44 S9          N/A
OPA LOCKA      MOSUNNY   88  68  51 S8        30.02R
MIAMI          MOSUNNY   87  66  49 VRB6      30.02R
WEST KENDALL   MOSUNNY   89  67  47 S8        30.01S
HOMESTEAD      SUNNY     87  69  54 SE7       30.01R

STATION/POSITION SKY/WX   TEMP    WIND        PRES    WAVE   SWELL
                          AIR SEA DIR/SP/G            HT/PER HT/PER
                          (F)     (DEG/KT/KT) (MB)    (FT/S) (FT/S)
PORT EVERGLADES            82     160/ 10/ 13 1016.3S
VIRGINIA KEY               80 82  190/  9/ 11 1016.1R
LAKE WORTH                 79 79  160/ 10/ 11 1015.7R
SETTLEMENT POINT           80     220/ 13/ 14 1016.7F

$$



USA.gov is the U.S. government's official web portal to all federal, state and local government web resources and services.